TimeWET,TemperatureF,Dew PointF,Humidity,Sea Level PressureIn,VisibilityMPH,Wind Direction,Wind SpeedMPH,Gust SpeedMPH,PrecipitationIn,Events,Conditions,WindDirDegrees,DateUTC
12:00 AM,56,54,90,29.98,6,NE,3.5,,,,Partly Cloudy,40,2012-11-15 00:00:00
12:00 AM,57.2,53.6,88,29.98,6.2,NE,3.5,-,N/A,,Scattered Clouds,40,2012-11-15 00:00:00
1:00 AM,55.4,51.8,88,29.95,6.2,ENE,3.5,-,N/A,,Scattered Clouds,60,2012-11-15 01:00:00
2:00 AM,55.4,53.6,94,29.92,6.2,East,5.8,-,N/A,,Scattered Clouds,100,2012-11-15 02:00:00
3:00 AM,54,52,91,29.94,6,SE,5.8,,,,Partly Cloudy,140,2012-11-15 03:00:00
3:00 AM,55.4,51.8,88,29.92,6.2,SE,5.8,-,N/A,,Scattered Clouds,140,2012-11-15 03:00:00
4:00 AM,53.6,51.8,94,29.92,6.2,SE,3.5,-,N/A,,Unknown,130,2012-11-15 04:00:00
5:00 AM,51.8,50.0,94,29.95,6.2,ESE,3.5,-,N/A,,Scattered Clouds,120,2012-11-15 05:00:00
6:00 AM,50,48,91,29.98,6,ESE,3.5,,,,Partly Cloudy,110,2012-11-15 06:00:00
6:00 AM,50.0,48.2,94,29.98,6.2,ESE,3.5,-,N/A,,Scattered Clouds,110,2012-11-15 06:00:00
7:00 AM,50.0,48.2,94,29.98,5.0,ENE,4.6,-,N/A,,Scattered Clouds,70,2012-11-15 07:00:00
8:00 AM,51.8,50.0,94,30.01,6.2,NE,3.5,-,N/A,,Scattered Clouds,40,2012-11-15 08:00:00
9:00 AM,57,54,84,30.01,6,ENE,5.8,,,,,60,2012-11-15 09:00:00
9:00 AM,57.2,53.6,88,30.01,-9999.0,ENE,5.8,-,N/A,,Clear,60,2012-11-15 09:00:00
10:00 AM,62.6,55.4,77,30.01,-9999.0,NE,6.9,-,N/A,,Clear,40,2012-11-15 10:00:00
11:00 AM,68.0,55.4,64,29.98,-9999.0,NE,3.5,-,N/A,,Clear,40,2012-11-15 11:00:00
12:00 PM,71,54,44,29.97,6,Calm,Calm,,,,Clear,,2012-11-15 12:00:00
12:00 PM,71.6,53.6,53,29.98,-9999.0,Calm,Calm,-,N/A,,Clear,0,2012-11-15 12:00:00
1:00 PM,73.4,55.4,53,29.95,-9999.0,Variable,3.5,-,N/A,,Clear,0,2012-11-15 13:00:00
2:00 PM,73.4,53.6,50,29.92,-9999.0,West,9.2,-,N/A,,Clear,270,2012-11-15 14:00:00
3:00 PM,71,54,44,29.93,6,West,13.8,,,,Clear,280,2012-11-15 15:00:00
3:00 PM,71.6,53.6,53,29.92,-9999.0,West,13.8,-,N/A,,Clear,280,2012-11-15 15:00:00
4:00 PM,69.8,55.4,60,29.92,6.2,West,11.5,-,N/A,,Unknown,270,2012-11-15 16:00:00
5:00 PM,68.0,55.4,64,29.95,-9999.0,WSW,8.1,-,N/A,,Clear,250,2012-11-15 17:00:00
6:00 PM,65,56,65,29.96,6,WSW,5.8,,,,Clear,250,2012-11-15 18:00:00
6:00 PM,64.4,55.4,73,29.95,-9999.0,WSW,5.8,-,N/A,,Clear,250,2012-11-15 18:00:00
7:00 PM,60.8,57.2,88,29.98,-9999.0,South,4.6,-,N/A,,Clear,190,2012-11-15 19:00:00
8:00 PM,60.8,57.2,88,29.98,6.2,SSE,3.5,-,N/A,,Unknown,160,2012-11-15 20:00:00
9:00 PM,58,55,88,29.99,6,SE,5.8,,,,,140,2012-11-15 21:00:00
9:00 PM,59.0,55.4,88,29.98,-9999.0,SE,5.8,-,N/A,,Clear,140,2012-11-15 21:00:00
10:00 PM,57.2,53.6,88,29.98,-9999.0,ENE,4.6,-,N/A,,Clear,70,2012-11-15 22:00:00
11:00 PM,55.4,53.6,94,29.98,-9999.0,NE,3.5,-,N/A,,Clear,40,2012-11-15 23:00:00